Regional Weather Roundup
Issued by NWS

Home | Current Version | Previous Version | Graphics & Text | Print | Product List | Glossary On
Versions: 1 2 3 4 5 6 7 8 9 10 11 12 13 14 15 16 17 18 19 20 21 22 23 24 25 26 27 28 29 30 31 32 33 34 35 36 37 38 39 40 41 42 43 44 45 46 47 48 49 50
000
ASUS43 KFSD 262302
RWRSD

WEATHER ROUNDUP FOR SOUTH DAKOTA
NATIONAL WEATHER SERVICE SIOUX FALLS SD
600 PM CDT MON JUN 26 2017

NOTE: "FAIR" INDICATES FEW OR NO CLOUDS BELOW 12,000 FEET WITH NO
SIGNIFICANT WEATHER AND/OR OBSTRUCTIONS TO VISIBILITY.


SDZ001>005-009-010-012>017-270000-
NORTHWEST AND NORTH CENTRAL SOUTH DAKOTA

CITY           SKY/WX    TMP DP  RH WIND       PRES   REMARKS
BUFFALO          N/A     83  36  18 SE14G22   29.99F
FAITH            N/A     76  41  28 SE13      30.09F
MOBRIDGE       SUNNY     76  37  24 SE7       30.10F
$$

SDZ012>016-024>037-041>051-057-063-072>074-270000-
SOUTHWEST AND SOUTH CENTRAL SOUTH DAKOTA

CITY           SKY/WX    TMP DP  RH WIND       PRES   REMARKS
RAPID CTY ARPT SUNNY     81  39  22 S14G23    30.08F
PIERRE         SUNNY     73  41  31 SE10      30.11F
CUSTER         SUNNY     71  36  27 SE12G17   30.19F
ELLSWORTH AFB  SUNNY     80  39  23 SE16G26   30.07
PHILIP         MOSUNNY   79  40  24 E15       30.08F
PINE RIDGE     SUNNY     79  40  24 SE12      30.11F
SPEARFISH      FAIR      79  43  27 E17G23    30.07F
WINNER         FAIR      78  37  22 NE6       30.14F
$$

SDZ004>011-016>023-039-040-270000-
NORTHEAST SOUTH DAKOTA

CITY           SKY/WX    TMP DP  RH WIND       PRES   REMARKS
ABERDEEN       SUNNY     73  36  25 W5        30.14F
WATERTOWN      SUNNY     68  40  35 VRB5      30.15F
BROOKINGS      SUNNY     68  38  33 N6        30.16F
SISSETON         N/A     73  39  29 N8        30.13F
$$

SDZ017-020-022-023-036>040-048>070-270000-
SOUTHEAST SOUTH DAKOTA

CITY           SKY/WX    TMP DP  RH WIND       PRES   REMARKS
SIOUX FALLS    MOSUNNY   71  46  40 NE5       30.15F
HURON          SUNNY     70  38  31 W5        30.14F
CHAMBERLAIN    SUNNY     76  35  22 NE7       30.14F
MITCHELL       SUNNY     74  35  24 N8        30.15F
YANKTON        SUNNY     72  41  32 VRB6      30.15F
$$

ABBREVIATIONS USED IN REMARKS
   TC - TEMPERATURE IN CELSIUS
  WCI - WIND CHILL INDEX
   HX - HEAT INDEX
  VSB - VISIBILITY




USA.gov is the U.S. government's official web portal to all federal, state and local government web resources and services.